Weather History for Bluefield, WV

Change the Weather History Date:

Friday, July 12, 2013

  Actual Average Record
Temperature  
Mean Temperature 71 °F 73 °F  
Max Temperature 79 °F 81 °F 87 °F (2011)
Min Temperature 63 °F 65 °F 50 °F (1963)
Degree Days  
Heating Degree Days 0 0  
Month to date heating degree days 0 0  
Since 1 June heating degree days 0 22  
Since 1 July heating degree days 0 0  
Cooling Degree Days 6 8  
Month to date cooling degree days 111 96  
Year to date cooling degree days 416 353  
Since 1 June cooling degree days 302 262  
Growing Degree Days 20 (Base 50)    
Moisture  
Dew Point 60 °F    
Average Humidity 77    
Maximum Humidity 93    
Minimum Humidity 60    
Precipitation  
Precipitation 0.36 in 0.14 in 1.56 in (2010)
Month to date precipitation 1.70 1.65  
Year to date precipitation 25.06 22.61  
Snow  
Snow 0.00 in - - ()
Month to date snowfall 0.0  
Since 1 June snowfall 0.0  
Since 1 July snowfall 0.0  
Snow Depth 0.00 in    
Sea Level Pressure  
Sea Level Pressure 30.06 in    
Wind  
Wind Speed 3 mph (NE)    
Max Wind Speed 12 mph    
Max Gust Speed 17 mph    
Visibility 7 miles    
Events Fog , Rain , Thunderstorm    
T = Trace of Precipitation, MM = Missing Value Source: NWS Daily Summary

Daily Weather History Graph

Daily Weather History Graph

Search for Another Location

Airport:

Trip Planner

Search our weather history database for the weather conditions in past years. The results will help you decide how hot, cold, wet, or windy it might be!

Date:

Astronomy

Jul. 12, 2013 Rise Set
Actual Time 6:14 AM EDT 8:46 PM EDT
Civil Twilight 5:44 AM EDT 9:16 PM EDT
Nautical Twilight 5:06 AM EDT 9:54 PM EDT
Astronomical Twilight 4:24 AM EDT 10:35 PM EDT
Moon 10:23 AM EDT (7/12) 11:03 PM EDT (7/12)
Length of Visible Light 15h 32m
Length of Day
14h 32m
Waxing Crescent, 17% of the Moon is Illuminated
Jul 12
Waxing Crescent
Jul 15
First Quarter
Jul 22
Full
Jul 29
Last Quarter
Aug 6
New

Hourly Weather History & Observations

Time (EDT) Temp. Dew Point Humidity Pressure Visibility Wind Dir Wind Speed Gust Speed Precip Events Conditions
12:04 AM 69.8 °F 62.6 °F 78% 30.04 in 10.0 mi North 3.5 mph - N/A   Mostly Cloudy
12:47 AM 68.0 °F 62.6 °F 83% 30.04 in 10.0 mi Calm Calm - N/A   Mostly Cloudy
12:52 AM 68.0 °F 62.1 °F 81% 29.93 in 10.0 mi Calm Calm - N/A   Mostly Cloudy
1:52 AM 66.9 °F 61.0 °F 81% 29.92 in 10.0 mi Calm Calm - N/A   Clear
2:47 AM 66.2 °F 60.8 °F 83% 30.03 in 10.0 mi Calm Calm - N/A   Mostly Cloudy
2:52 AM 66.0 °F 61.0 °F 84% 29.92 in 10.0 mi Calm Calm - N/A   Mostly Cloudy
3:52 AM 66.9 °F 61.0 °F 81% 29.92 in 10.0 mi Calm Calm - N/A   Overcast
4:10 AM 66.2 °F 60.8 °F 83% 30.03 in 10.0 mi Calm Calm - N/A   Overcast
4:52 AM 66.0 °F 61.0 °F 84% 29.91 in 10.0 mi Calm Calm - N/A   Overcast
5:00 AM 66.2 °F 60.8 °F 83% 30.02 in 10.0 mi Calm Calm - N/A   Overcast
5:52 AM 66.0 °F 61.0 °F 84% 29.93 in 10.0 mi WSW 3.5 mph - N/A   Mostly Cloudy
6:05 AM 64.4 °F 60.8 °F 88% 30.04 in 8.0 mi West 3.5 mph - N/A   Scattered Clouds
6:19 AM 66.2 °F 60.8 °F 83% 30.05 in 2.5 mi West 4.6 mph - N/A   Haze
6:26 AM 66.2 °F 62.6 °F 88% 30.05 in 1.0 mi West 3.5 mph - N/A   Mostly Cloudy
6:34 AM 66.2 °F 60.8 °F 83% 30.05 in 0.2 mi West 4.6 mph - N/A   Haze
6:52 AM 64.9 °F 61.0 °F 87% 29.94 in 0.2 mi NW 3.5 mph - N/A Fog Fog
7:30 AM 66.2 °F 62.6 °F 88% 30.06 in 1.2 mi NW 3.5 mph - N/A   Overcast
7:35 AM 66.2 °F 62.6 °F 88% 30.06 in 4.0 mi NW 3.5 mph - N/A   Overcast
7:52 AM 66.9 °F 62.1 °F 84% 29.95 in 7.0 mi Calm Calm - N/A   Overcast
8:52 AM 69.1 °F 61.0 °F 75% 29.97 in 10.0 mi Variable 4.6 mph - N/A   Overcast
9:36 AM 69.8 °F 60.8 °F 73% 30.08 in 10.0 mi NE 5.8 mph - N/A   Overcast
9:52 AM 69.1 °F 61.0 °F 75% 29.98 in 10.0 mi NE 5.8 mph - N/A   Overcast
9:59 AM 69.8 °F 60.8 °F 73% 30.08 in 10.0 mi NE 4.6 mph - N/A   Overcast
10:18 AM 71.6 °F 60.8 °F 69% 30.08 in 10.0 mi NE 4.6 mph - N/A   Overcast
10:41 AM 69.8 °F 60.8 °F 73% 30.09 in 10.0 mi NNE 4.6 mph - N/A   Overcast
10:52 AM 71.1 °F 61.0 °F 70% 29.99 in 10.0 mi Calm Calm - N/A   Overcast
11:05 AM 71.6 °F 60.8 °F 69% 30.09 in 10.0 mi Calm Calm - N/A   Mostly Cloudy
11:15 AM 73.4 °F 60.8 °F 65% 30.08 in 10.0 mi Variable 4.6 mph - N/A   Mostly Cloudy
11:52 AM 73.0 °F 61.0 °F 66% 29.98 in 10.0 mi ENE 4.6 mph - N/A   Overcast
12:02 PM 71.6 °F 62.6 °F 73% 30.09 in 7.0 mi North 6.9 mph - 0.02 in Rain Rain
12:16 PM 71.6 °F 62.6 °F 73% 30.08 in 9.0 mi Calm Calm - 0.04 in Rain , Thunderstorm Rain
12:31 PM 73.4 °F 64.4 °F 73% 30.09 in 10.0 mi NNE 5.8 mph - 0.04 in   Mostly Cloudy
12:52 PM 75.9 °F 63.0 °F 64% 29.97 in 10.0 mi NNE 5.8 mph - 0.04 in   Scattered Clouds
1:52 PM 75.9 °F 61.0 °F 60% 29.96 in 10.0 mi Variable 3.5 mph - N/A   Mostly Cloudy
2:06 PM 75.2 °F 60.8 °F 61% 30.08 in 10.0 mi North 5.8 mph - N/A   Mostly Cloudy
2:41 PM 75.2 °F 60.8 °F 61% 30.07 in 10.0 mi NNW 6.9 mph - N/A   Overcast
2:49 PM 75.2 °F 60.8 °F 61% 30.07 in 10.0 mi Variable 4.6 mph - N/A   Overcast
2:52 PM 75.0 °F 61.0 °F 62% 29.96 in 10.0 mi Variable 4.6 mph - N/A   Overcast
3:14 PM 77.0 °F 60.8 °F 57% 30.07 in 10.0 mi Variable 5.8 mph - N/A Thunderstorm Thunderstorm
3:29 PM 73.4 °F 60.8 °F 65% 30.06 in 10.0 mi East 4.6 mph - N/A   Overcast
3:52 PM 73.0 °F 63.0 °F 71% 29.96 in 10.0 mi SE 3.5 mph - 0.00 in Rain Light Rain
4:47 PM 69.8 °F 60.8 °F 73% 30.06 in 10.0 mi East 9.2 mph - 0.00 in Thunderstorm Thunderstorm
4:48 PM 69.1 °F 61.0 °F 75% 29.97 in 10.0 mi East 9.2 mph - 0.00 in Thunderstorm Thunderstorm
5:02 PM 66.2 °F 59.0 °F 78% 30.08 in 10.0 mi ENE 6.9 mph - 0.02 in Rain Light Rain
5:12 PM 64.4 °F 59.0 °F 83% 30.09 in 5.0 mi East 6.9 mph - 0.09 in Rain , Thunderstorm Heavy Thunderstorms and Rain
5:22 PM 64.4 °F 59.0 °F 83% 30.08 in 2.5 mi East 8.1 mph 16.1 mph 0.24 in Rain Heavy Rain
5:33 PM 64.4 °F 59.0 °F 83% 30.09 in 6.0 mi ENE 5.8 mph - 0.27 in Rain , Thunderstorm Light Rain
5:41 PM 64.4 °F 60.8 °F 88% 30.10 in 9.0 mi Variable 3.5 mph - 0.28 in Rain , Thunderstorm Light Rain
5:50 PM 64.4 °F 60.8 °F 88% 30.09 in 10.0 mi East 4.6 mph - 0.28 in Rain Light Rain
5:52 PM 64.9 °F 60.1 °F 84% 30.01 in 10.0 mi ENE 4.6 mph - 0.28 in Rain Light Rain
6:32 PM 66.2 °F 57.2 °F 73% 30.08 in 10.0 mi East 4.6 mph - 0.00 in   Mostly Cloudy
6:52 PM 66.0 °F 59.0 °F 78% 30.00 in 10.0 mi North 3.5 mph - 0.00 in   Mostly Cloudy
7:52 PM 64.9 °F 60.1 °F 84% 30.01 in 10.0 mi North 4.6 mph - N/A   Overcast
8:41 PM 64.4 °F 59.0 °F 83% 30.10 in 1.5 mi SSE 4.6 mph - 0.04 in Rain Light Rain
8:43 PM 64.4 °F 59.0 °F 83% 30.10 in 0.8 mi SE 3.5 mph - 0.04 in Rain Light Rain
8:48 PM 62.6 °F 59.0 °F 88% 30.10 in 0.2 mi Variable 3.5 mph - 0.04 in Fog Fog
8:52 PM 63.0 °F 60.1 °F 90% 30.01 in 0.2 mi Calm Calm - 0.04 in Fog Fog
8:57 PM 64.4 °F 59.0 °F 83% 30.11 in 1.2 mi Calm Calm - N/A   Haze
8:59 PM 64.4 °F 60.8 °F 88% 30.11 in 3.0 mi Calm Calm - N/A   Overcast
9:05 PM 64.4 °F 60.8 °F 88% 30.11 in 10.0 mi North 4.6 mph - N/A   Overcast
9:15 PM 64.4 °F 59.0 °F 83% 30.11 in 10.0 mi East 3.5 mph - N/A   Mostly Cloudy
9:52 PM 63.0 °F 59.0 °F 87% 30.03 in 10.0 mi Calm Calm - N/A   Scattered Clouds
10:02 PM 62.6 °F 59.0 °F 88% 30.13 in 10.0 mi Variable 3.5 mph - N/A   Mostly Cloudy
10:09 PM 62.6 °F 59.0 °F 88% 30.13 in 2.5 mi North 6.9 mph - N/A   Mostly Cloudy
10:13 PM 64.4 °F 59.0 °F 83% 30.14 in 1.0 mi North 5.8 mph - N/A   Haze
10:23 PM 64.4 °F 60.8 °F 88% 30.15 in 2.0 mi North 4.6 mph - N/A   Overcast
10:29 PM 64.4 °F 60.8 °F 88% 30.15 in 6.0 mi Calm Calm - N/A   Overcast
10:52 PM 64.0 °F 59.0 °F 84% 30.06 in 9.0 mi NE 3.5 mph - N/A   Mostly Cloudy
11:01 PM 64.4 °F 59.0 °F 83% 30.16 in 7.0 mi ESE 3.5 mph - N/A   Mostly Cloudy
11:04 PM 64.4 °F 59.0 °F 83% 30.16 in 1.8 mi Calm Calm - N/A   Haze
11:08 PM 64.4 °F 60.8 °F 88% 30.16 in 0.8 mi East 3.5 mph - N/A   Overcast
11:14 PM 64.4 °F 59.0 °F 83% 30.16 in 1.2 mi East 3.5 mph - N/A   Haze
11:17 PM 64.4 °F 59.0 °F 83% 30.16 in 3.0 mi Calm Calm - N/A   Haze
11:26 PM 62.6 °F 59.0 °F 88% 30.15 in 2.5 mi ESE 3.5 mph - N/A   Mostly Cloudy
11:30 PM 62.6 °F 59.0 °F 88% 30.15 in 1.0 mi Calm Calm - N/A   Mostly Cloudy
11:38 PM 62.6 °F 59.0 °F 88% 30.15 in 0.8 mi East 3.5 mph - N/A   Overcast
11:44 PM 62.6 °F 59.0 °F 88% 30.14 in 1.2 mi ESE 4.6 mph - N/A   Overcast
11:48 PM 62.6 °F 59.0 °F 88% 30.14 in 0.8 mi Calm Calm - N/A   Mist
11:52 PM 63.0 °F 59.0 °F 87% 30.05 in 0.5 mi East 3.5 mph - N/A Fog Fog